RH
73 76 59 66 60 58 61 57 78 86 92 93 91 93 87 89 89 86 75 67 56 61 95 95 89 94 91 95 95 97 94 86 83
72 77 58 78 80 79 70 66 71 72 80 89 98 98 94 92 78 81 84 77 70 69 85 91 93 94 95 94 96 96 89 84 81
67 51 59 80 80 79 66 56 49 52 60 65 74 85 91 95 82 75 84 84 83 79 90 94 91 91 94 94 95 93 87 78 80
39 39 51 76 80 74 64 64 59 43 37 43 54 57 61 74 86 82 80 85 90 90 82 92 93 93 94 91 95 93 87 79 84
48 51 51 47 58 47 54 52 48 40 38 36 34 38 47 54 64 86 87 84 93 98 98 85 84 91 90 88 88 88 81 76 80
60 52 50 50 50 50 48 46 44 38 40 36 35 35 38 40 45 52 72 90 97 100 100 99 84 86 88 91 87 86 79 78 78
65 66 56 60 56 56 52 50 48 56 53 50 48 42 42 42 41 41 52 81 99 99 99 96 96 81 83 88 91 86 83 76 80
62 64 67 67 64 63 65 63 59 63 62 58 54 54 53 46 43 43 49 53 74 87 99 97 99 96 84 84 91 91 84 78 81
62 65 68 65 66 65 64 63 65 67 65 63 60 57 54 51 50 49 52 50 38 65 72 90 98 99 99 93 88 91 88 84 80
63 67 66 67 71 69 66 64 65 68 72 73 70 66 60 55 53 52 54 56 46 46 65 70 80 94 99 99 92 85 90 86 82
66 68 68 67 71 75 74 74 78 88 93 95 80 75 70 63 59 57 56 60 57 47 69 69 72 83 88 98 99 90 85 88 88
71 70 69 68 76 77 74 73 72 72 72 71 69 70 67 68 64 65 66 66 66 68 73 77 71 76 84 90 93 99 90 87 88
68 67 69 74 74 75 72 68 69 68 68 67 65 66 67 67 66 67 71 74 70 67 68 77 81 79 80 83 90 99 99 89 89
71 69 71 72 73 72 75 70 70 69 70 70 68 68 66 66 68 74 75 76 80 69 65 68 63 59 52 72 86 84 100 96 91
70 69 73 75 72 70 74 74 72 72 77 77 73 70 63 67 69 74 79 81 78 74 71 67 67 62 49 74 76 71 77 100 97
66 67 71 73 73 74 74 74 72 72 76 78 76 66 65 69 66 80 95 96 87 93 96 89 80 87 84 82 81 97 95 86 99
64 65 69 73 75 72 72 76 79 75 75 80 85 74 58 58 70 78 91 93 99 98 100 88 90 96 92 91 91 96 96 72 85
61 68 71 73 80 76 78 80 83 80 76 79 88 90 84 81 64 69 81 94 98 99 100 100 100 100 100 94 90 85 83 88 95
56 59 71 73 76 80 82 74 83 83 76 78 78 81 90 96 91 67 68 77 98 98 100 99 96 99 99 100 100 93 82 77 75
64 59 70 73 76 80 85 84 82 80 79 78 78 72 72 95 85 85 65 71 76 96 99 100 100 96 90 88 91 89 94 98 94
Wind_Speed
9 9 9 9 8 9 9 9 9 10 10 11 13 15 16 15 16 16 15 15 13 15 14 13 14 14 14 12 11 11 11 10 10
8 8 9 9 9 9 9 9 8 9 10 10 10 13 15 14 17 19 17 16 16 16 16 16 16 17 15 15 14 13 12 13 13
8 8 8 9 9 9 10 10 11 11 12 12 13 13 13 14 17 19 20 18 20 18 19 18 19 19 19 18 17 17 16 16 15
8 8 8 9 9 9 11 11 12 13 14 13 13 14 15 14 16 18 19 20 23 21 22 22 22 22 22 21 20 19 19 18 18
10 9 9 9 9 9 9 11 12 14 15 16 16 16 16 16 17 18 19 21 22 23 24 25 25 24 27 26 25 23 21 21 20
8 10 9 10 10 10 10 11 11 12 12 14 16 18 14 15 16 19 20 21 24 25 27 28 29 28 29 28 28 27 26 24 23
9 9 11 11 11 12 12 12 12 11 9 10 12 10 12 16 17 19 20 24 22 26 29 32 32 34 33 32 31 29 29 26 25
8 8 8 10 12 10 11 10 9 10 10 10 11 12 12 13 15 19 23 27 24 25 27 32 34 35 36 36 34 33 31 31 29
8 8 9 10 11 11 10 10 11 11 11 12 13 13 13 14 15 18 21 25 27 27 27 29 30 34 36 37 36 35 35 33 31
8 8 9 9 10 11 11 12 12 12 12 12 12 13 15 16 16 18 21 25 25 26 27 29 31 30 34 37 39 38 39 37 36
7 8 8 9 10 11 11 12 12 12 13 14 13 15 15 15 16 18 21 24 26 27 26 27 30 30 31 34 39 41 42 41 38
8 8 9 9 10 11 11 11 11 12 13 14 15 15 14 14 14 18 20 22 23 24 26 25 27 28 28 30 34 44 44 44 41
8 8 9 10 10 10 11 12 13 13 14 16 16 14 12 11 14 17 19 20 20 20 20 20 20 21 23 25 29 31 41 44 43
8 8 9 11 10 10 11 12 13 14 15 18 16 13 10 10 14 18 18 18 17 17 17 19 20 23 23 22 21 32 33 48 45
8 8 8 10 9 10 11 13 13 13 14 18 16 11 8 8 13 18 18 17 15 15 15 16 15 16 17 15 16 30 23 17 34
8 9 9 9 9 10 10 11 13 12 14 12 15 9 8 6 12 15 16 16 12 9 8 10 12 12 6 11 6 9 15 22 26
9 9 9 9 9 9 9 9 10 11 11 10 9 5 5 12 8 13 15 17 15 13 11 7 4 3 5 7 11 10 11 5 13
11 10 9 10 9 10 9 8 7 9 10 9 4 3 3 12 8 12 13 17 16 16 18 14 10 10 9 8 11 4 9 10 12
11 11 9 10 10 10 9 7 6 6 9 9 5 7 9 3 5 10 10 14 12 14 14 14 14 15 16 16 14 12 10 7 12
10 11 9 10 10 10 10 9 8 7 8 9 9 10 10 5 4 7 10 13 10 10 9 10 9 7 7 8 9 9 12 12 7
Wind_Direction
351 348 339 342 334 333 330 322 310 297 289 285 268 264 263 262 258 253 250 243 239 236 224 225 220 226 226 226 220 209 202 200 205
351 345 334 341 343 340 327 322 314 299 287 281 286 273 268 264 260 257 248 246 239 236 228 230 234 236 234 229 226 219 214 209 204
346 337 337 343 335 332 315 308 300 297 293 288 284 281 280 269 261 258 252 246 244 240 237 235 233 233 234 234 230 223 218 216 212
357 356 352 350 345 328 318 310 300 292 289 289 284 281 278 277 268 264 257 251 250 247 241 241 240 239 235 230 228 225 218 216 214
356 8 350 352 347 336 329 318 305 294 287 283 280 278 278 275 267 267 258 253 249 247 246 243 242 244 237 231 228 222 217 219 216
3 357 355 350 348 340 331 323 316 314 314 302 287 282 277 272 268 262 262 260 253 251 250 245 241 240 239 235 230 224 214 218 219
2 357 359 356 350 344 336 331 332 337 320 315 321 303 284 277 272 268 266 260 263 260 254 249 242 238 236 236 231 226 217 217 219
355 356 354 353 344 344 338 336 332 325 322 318 313 305 300 290 279 273 268 267 270 270 268 261 251 240 237 235 232 225 219 219 217
355 357 356 355 348 342 340 335 330 329 326 318 309 304 297 291 287 284 281 281 275 272 273 272 266 250 240 235 231 227 221 218 217
351 349 352 353 346 345 339 332 327 325 321 318 308 303 295 292 290 288 285 287 284 280 272 268 266 263 252 239 233 228 224 218 216
344 345 343 347 348 344 338 330 328 325 322 315 310 306 303 299 296 294 291 286 285 280 279 271 265 261 258 253 237 229 226 221 216
345 341 338 341 338 344 339 333 329 326 323 316 317 314 310 309 309 307 299 293 287 286 281 274 266 260 262 265 255 237 224 221 215
348 339 330 333 333 341 335 333 330 330 328 325 325 319 313 314 316 319 314 307 293 292 288 282 267 265 269 275 260 270 232 219 214
340 333 327 328 330 333 333 332 332 331 331 328 325 318 309 319 328 331 321 316 306 292 289 284 278 272 282 281 268 261 261 216 211
331 324 325 325 327 327 331 332 334 330 334 328 320 317 312 325 329 338 332 324 315 307 286 285 281 277 271 272 277 288 312 221 205
321 315 316 321 320 322 326 330 333 337 341 332 335 322 327 321 331 349 351 344 344 344 331 304 275 281 229 269 303 245 225 276 210
309 302 305 311 312 313 321 329 333 329 346 341 322 336 321 348 340 354 0 2 6 13 21 8 358 26 83 37 30 95 130 294 201
306 295 294 298 301 303 311 319 330 326 329 338 319 325 323 331 336 339 353 11 17 21 43 44 42 42 59 48 49 49 107 200 214
309 303 292 288 288 288 294 300 301 301 311 319 272 280 276 311 312 323 340 352 2 13 31 51 50 57 63 77 75 71 91 197 226
315 311 296 287 282 281 283 289 289 289 288 290 303 305 292 236 285 304 328 337 347 352 2 15 44 48 48 43 48 59 83 82 101